User: anonymous   Login
Location: Hartman Creek State Park
(44.3257°N, 89.2134°W)
Time: 20:53:35
(UTC-05:00)
Language:

BREEZE-M DEB (TANK) - Orbit

View from above orbital plane
View from above orbital plane
View from above satellite
View from above satellite

Ground track
Ground track

The orbit data is extracted from the following two-line orbital elements,

1 29649U 06056B   14303.80774611  .00003900  00000-0  57590-3 0   466
2 29649 049.4648 212.7818 5417809 284.6633 039.8467 04.95214670139943
Epoch (UTC): 30 October 2014 19:23:09
Eccentricity: 0.5417809
inclination: 49.4648°
perigee height: 284 km
apogee height: 16038 km
right ascension of ascending node: 212.7818°
argument of perigee: 284.6633°
revolutions per day: 4.95214670
mean anomaly at epoch: 39.8467°
orbit number at epoch: 13994

The dashed part of the orbit path shows where the satellite is in the earth's shadow,  

DLR